Погода Klodzko

Погода Klodzko : погода сейчас, прогноз погоды и архив. Всё, что Вы хотите узнать о погоде Klodzko!

Поиск расширенной информации на нашем сайте:

Другие новости

Новости СМИ2

Главная страница сайта

Новости сайта

03.07.2017

Напоминаем, что на нашем специализированном сайте Метеоцентр.Азия вы можете получить высокодетализированные автоматические прогнозы погоды по пунктам России, СНГ и мира в авиационном формате (включающие направление и скорость ветра, видимость, явления погоды, количество и форму облачности, нижнюю и верхнюю границу облачности).


Погода Klodzko - сегодня

Время (UTC), дата Ветер
(°,м/с) 
Видим.   Явления Облачность Т
(°С)
Тd
(°С)
f(%) Тe
(°С)
Pmin
(гПа)
dP
(гПа)
Po
(мм)
O2
(г/м3)
Тmin Tmax R s Состояние
почвы
18 11.11.18 200 (Ю) 9000 м  дымка  ясно 
+5.3 +4.3 93 +6  1020.6  2.1  733  289  +4.9  +11.6       
21 11.11.18 320 (СЗ) 2800 м  дымка  1/0 средняя, верхняя 
[Ac trans|Ci sp]
+3.5 +3.1 97 +4  1021.7  0.8  733  291           
09 12.11.18 270 (З) 10 км    6/1 600 м средняя, верхняя 
[Cu med, cong|Ac und|Ci sp]
+10.8 +10.3 97 +13  1022.8  0.2  735  283           
12 12.11.18 200 (Ю) 6{10}  15000 м    9/8 570 м средняя 
[Sc|Ac trans]
+12.1 +8.8 80 +11  1022.5  -0.1  735  282           
18 12.11.18 190 (Ю) 4{14}  15000 м    8/8 800 м 
[Sc]
+11.4 +8.1 80 +11  1023.3  735  283  +2.4  +15.1       
21 12.11.18 310 (СЗ) 15000 м    1/1 600 м 
[Sc]
+9.1 +7.2 88 +9  1024.4  0.7  736  286           
03 13.11.18 210 (ЮЗ) 8000 м  дымка  9/0 верхняя 
[Cs]
+7.5 +6.9 96 +7  1024.4  0.3  736  287           
09 13.11.18 340 (С) 10 км    9/1 600 м средняя, верхняя 
[Sc|Ac trans|Cs]
+11 +9.1 88 +11  1024.1  0.5  736  283           
12 13.11.18 210 (ЮЗ) 15000 м    9/4 700 м средняя, верхняя 
[Sc|Ac trans|Cs]
+12.8 +9.2 79 +13  1023.9  0.1  736  282           
15 13.11.18 250 (З) 10 км    10/1 630 м средняя 
[Sc|Ac As]
+11.5 +8.9 84 +10  1024.7  0.6  736  283           
21 13.11.18 030 (СВ) 15000 м  {ливн. осадки}  8/8 720 м 
[Sc]
+8.5 +6.3 86 +10  1028.6  0.8  739  288           
03 14.11.18 350 (С) 12000 м    9/9 1500 м 
[Sc]
+5.6 +4.2 91 +6  1030.6  0.4  740  291           
21 14.11.18 200 (Ю) 2200 м  дымка  6/0 средняя, верхняя 
[Ac und|Cs]
+0.9 +0.3 96 +2  1033.1  0.5  741  298           
03 15.11.18 180 (Ю) 1100 м  в посл. час туман  9/1 60 м средняя 
[St|Ac trans]
-0.3 -0.6 98 1033.2  0.1  741  299           
12 15.11.18 350 (С) 4000 м  в посл. час туман  3/1 600 м средняя, верхняя 
[Cu med, cong|Ac trans|Ci fib]
+6.3 +6.2 99 +6  1031.9  -0.9  741  291           
15 15.11.18 090 (В) 15000 м    9/9 800 м 
[Sc]
+7.2 +2.7 73 +6  1032.1  0.3  741  290           
21 15.11.18 070 (В) 15000 м    4/4 600 м 
[Sc]
+5.5 +1.4 75 +5  1033.3  0.5  742  293           
00 16.11.18 010 (С) 12000 м    4/4 870 м 
[Sc]
+2.6 +0.8 88 +2  1034.6  0.8  742  296           
03 16.11.18 360 (С) 10 км    1/1 600 м 
[Sc]
+1.1 +0.2 94 +2  1034.9  742  298           
06 16.11.18 040 (СВ) 2500 м  дымка  9/9 1020 м 
[Sc]
+2.2 +1.8 97 +2  1035.3  0.6  743  297  -0.8  +6.7      влажная 
09 16.11.18 050 (СВ) 3000 м  дымка  9/9 180 м 
[St]
+3.8 +3.4 97 +5  1036.3  1.2  744  295           
12 16.11.18 070 (В) 10 км    10/9 930 м 
[Sc]
+4.7 +1.5 80 +4  1035.9  -0.2  744  294           
15 16.11.18 090 (В) 10 км    10/9 500 м 
[Sc]
+4.4 +1.2 80 +3  1035.7  -0.3  743  295           
00 17.11.18 050 (СВ) 8000 м  дымка  4/4 330 м 
[Sc]
+1.6 -0.7 85 1038.3  0.5  745  298           
18 17.11.18 050 (СВ) 2{11}  9000 м  дымка  3/0 верхняя 
[Cs]
-0.4 -4.5 74 -1  1037.1  -0.7  744  301  -1.8  +1.6       
Время (UTC), дата Ветер
(°,м/с) 
Видим.   Явления Облачность Т
(°С)
Тd
(°С)
f(%) Тe
(°С)
Pmin
(гПа)
dP
(гПа)
Po
(мм)
O2
(г/м3)
Тmin Tmax R s Состояние
почвы

Для получения пояснительной информации подведите курсор к названию столбца.

ПОГОДА Klodzko - архив

Всё, что Вы хотите узнать о погоде Klodzko - удобно и подробно!

Выберите нужную дату (начиная с 1 января 2015* года) и нажмите кнопку "Найти".
Будут отображены архивные сводки погоды по пункту Klodzko, начиная с указанной даты.


Отображать данные в формате CSV (для использования в таблицах Excel)


Внимание! Наш архив погоды предназначен исключительно для личного некоммерческого использования в познавательных целях. Если Вам необходимы официальные справки о состоянии погоды (для производственных, юридических, коммерческих и т.п. целей), обращайтесь в органы Росгидромета.

*Примечание: данная дата относится к архиву по метеостанциям СССР (Россия, СНГ, Балтия).
Архив по метеостанциям Зарубежной Европы и Азии (кроме Китая) хранится 10 дней, по другим регионам земного шара (Китай, Африка, Америка, Австралия, Океания) - 1 день.

Klodzko - район местоположения метеостанции


Название, широта, долгота, высота метеостанции:
Klodzko 50.4°ш. 16.6°д. 357 м над ур. моря [Poland]

Дополнительная информация

В oтличие oт бoльшинства пoгoдных сайтoв мы публикуем пoдрoбную метеoинфoрмацию в детальнoм прoфессиoнальнoм фoрмате.

Характеристики температуры и влажнoсти вoздуха измеряются на высoте 2 м в тени вдали oт зданий и деревьев.
Скoрoсть ветра измеряется на высoте 10 м (на урoвне рoста челoвека скoрoсть ветра ниже в 1.5-2 раза). Если метеoстанция нахoдится в гoрoде или в лесу, тo скoрoсть ветра занижена на 2-4 м/с пo сравнению с oткрытым местoм. Скoрoсть ветра над акватoриями крупных рек и oзёр, а также на вершинах хoлмoв на 2-5 м/с выше, чем в oбычных услoвиях.
Атмoсфернoе давление в разных тoчках местнoсти мoжет значительнo oтличаться oт давления на метеoстанции, в зависимoсти oт услoвий рельефа (при пoдъёме на 10 м давление пoнижается примернo на 1 мм рт.ст.).